Flag for Germany Weather past 2 weeks in Schwedt/Oder, Brandenburg, Germany

Now
54 °F

Light rain. Partly cloudy.


Feels Like: 52 °F
Forecast: 46 / 53 °F
Wind: 7 mph from Southeast

Location: Szczecin Airport

Current Time: Oct 21, 2014 at 10:42:45 PM

Latest Report: Oct 21, 2014 at 10:00 PM


Visibility: N/A

Pressure: 29.47 "Hg

Humidity: 94%

Dew point: 52 °F

Location of Schwedt/OderLocation

Historic Weather in Schwedt/Oder — Graph

°F

Schwedt/Oder temperature yesterday

Maximum temperature yesterday: 61 °F (at 12:00 AM)
Minimum temperature yesterday: 54 °F (at 8:30 PM)
Average temperature yesterday: 57 °F

Past Weeks' High & Low Weather Summary

 TemperatureHumidityPressure
High68 °F (Oct 19, 3:30 PM)100% (Oct 9, 8:00 AM)30.21 "Hg (Oct 9, 8:00 AM)
Low45 °F (Oct 12, 11:30 PM)63% (Oct 8, 1:30 PM)29.47 "Hg (Oct 21, 9:00 PM)
Average56 °F91%29.85 "Hg
* Reported Oct 6 9:00 PM — Oct 21 9:30 PM, Schwedt/Oder, Weather by CustomWeather, © 2014

Note: Actual official high and low records may vary slightly from our data, if they occured in-between our weather recording intervals... More about our weather records

Advertising

Schwedt/Oder weather history for previous 24 hours

 ConditionsComfort  
Time TempWeatherWind HumidityBarometerVisibility
9:30 PM
Oct 21
54 °FLight rain. Passing clouds.7 mph94%29.47 "HgN/A
9:00 PM54 °FLight rain. Passing clouds.7 mph94%29.47 "HgN/A
8:30 PM54 °FLight rain. Passing clouds.7 mph94%29.50 "HgN/A
8:00 PM54 °FLight rain. Partly cloudy.6 mph94%29.50 "HgN/A
7:30 PM54 °FLight rain. Partly cloudy.9 mph94%29.53 "HgN/A
7:00 PM54 °FPartly cloudy.6 mph94%29.53 "HgN/A
6:30 PM55 °FBroken clouds.10 mph88%29.53 "HgN/A
6:00 PM55 °FScattered clouds.7 mph88%29.56 "HgN/A
5:30 PM57 °FPassing clouds.8 mph82%29.56 "HgN/A
5:00 PM57 °FPassing clouds.8 mph82%29.56 "HgN/A
4:30 PM57 °FScattered clouds.8 mph82%29.59 "HgN/A
4:00 PM57 °FPartly sunny.7 mph88%29.59 "HgN/A
3:30 PM57 °FScattered clouds.7 mph82%29.62 "HgN/A
3:00 PM57 °FScattered clouds.7 mph88%29.62 "HgN/A
2:30 PM55 °FPartly sunny.7 mph88%29.65 "HgN/A
2:00 PM55 °FBroken clouds.6 mph88%29.65 "HgN/A
1:30 PM55 °FBroken clouds.8 mph88%29.68 "HgN/A
1:00 PM55 °FPartly sunny.7 mph88%29.68 "HgN/A
12:30 PM55 °FBroken clouds.7 mph88%29.71 "HgN/A
12:00 PM55 °FBroken clouds.8 mph88%29.71 "HgN/A
11:30 AM55 °FBroken clouds.7 mph88%29.71 "HgN/A
11:00 AM54 °FScattered clouds.6 mph94%29.71 "HgN/A
10:30 AM54 °FBroken clouds.6 mph94%29.74 "HgN/A
10:00 AM52 °FBroken clouds.5 mph100%29.74 "HgN/A
9:30 AM52 °FBroken clouds.5 mph94%29.74 "HgN/A
9:00 AM52 °FBroken clouds.6 mph94%29.74 "HgN/A
8:30 AM52 °FPartly cloudy.5 mph94%29.74 "HgN/A
8:00 AM50 °FPartly cloudy.7 mph100%29.74 "HgN/A
7:30 AM52 °FPartly cloudy.5 mph94%29.74 "HgN/A
7:00 AM52 °FPartly cloudy.5 mph94%29.77 "HgN/A
6:30 AM52 °FPartly cloudy.6 mph94%29.77 "HgN/A
6:00 AM52 °FPartly cloudy.5 mph94%29.77 "HgN/A
5:00 AM52 °FLight rain. Partly cloudy.5 mph94%29.77 "Hg5 mi
4:30 AM52 °FLight rain. Partly cloudy.2 mph100%29.77 "HgN/A
4:00 AM52 °FLight rain. Partly cloudy.7 mph94%29.77 "HgN/A
3:30 AM52 °FLight rain. Partly cloudy.7 mph94%29.80 "HgN/A
3:00 AM52 °FLight rain. Passing clouds.5 mph94%29.80 "HgN/A
2:30 AM52 °FPassing clouds.5 mph94%29.80 "HgN/A
2:00 AM54 °FPassing clouds.6 mph88%29.80 "HgN/A
1:30 AM54 °FPassing clouds.5 mph88%29.80 "HgN/A
1:00 AM54 °FPassing clouds.5 mph88%29.80 "HgN/A
12:30 AM54 °FPassing clouds.6 mph88%29.80 "HgN/A
12:00 AM54 °FSprinkles. Passing clouds.5 mph88%29.80 "HgN/A
11:30 PM
Oct 20
54 °FPassing clouds.6 mph88%29.83 "HgN/A
11:00 PM54 °FClear.6 mph88%29.83 "Hg10 mi
10:30 PM54 °FClear.6 mph88%29.83 "Hg10 mi
10:00 PM54 °FClear.8 mph88%29.83 "Hg10 mi
Weather by CustomWeather, © 2014

See weather overviewHow to use our weather pages